Temp
9 9 8 8 7 7 7 7 6 6 6 6 6 6 6 6 6 6 7 7 8 8 8 8 9 9 9 9 10 9 8 6 6 6 6 6 6 6 6 6 6 7
8 8 7 7 7 6 6 6 6 6 6 6 6 6 6 6 6 6 7 7 8 8 8 8 8 8 9 9 9 8 6 6 6 5 5 6 6 6 6 6 6 6
7 7 7 7 7 6 6 6 6 6 6 5 5 5 5 5 5 6 7 7 7 7 8 8 8 8 8 8 8 6 5 5 5 5 5 5 6 6 6 6 6 6
7 7 7 7 6 6 6 6 6 6 5 5 5 5 5 5 5 6 6 6 7 7 7 7 7 8 8 7 6 5 5 5 4 4 5 5 5 5 5 6 6 6
7 7 7 6 6 6 6 6 5 5 5 5 5 5 5 5 5 5 5 5 6 6 6 6 7 7 7 6 5 4 4 4 4 4 5 5 5 5 5 5 6 6
7 7 6 6 6 6 6 5 5 5 5 5 5 5 5 5 5 5 5 4 5 5 5 5 5 6 6 5 4 4 4 4 4 4 4 5 5 5 5 5 6 6
6 6 6 6 6 5 5 5 5 5 5 5 5 5 5 5 5 4 4 4 4 4 4 4 4 4 4 4 4 3 3 4 4 4 4 4 4 5 5 5 5 5
6 6 6 6 5 5 5 5 5 6 6 5 5 5 4 4 4 4 4 4 4 4 4 4 4 4 4 3 3 3 3 3 3 4 4 4 4 5 5 5 5 5
6 6 6 6 5 6 5 5 6 6 6 5 5 5 4 4 4 4 4 4 4 4 3 3 3 3 3 3 3 3 3 3 3 4 4 4 4 4 4 5 5 5
6 6 6 6 5 6 6 6 6 5 5 5 5 4 4 4 4 4 4 4 3 3 3 3 3 3 3 3 3 3 3 3 3 4 4 4 4 4 4 4 5 5
6 6 5 5 5 6 6 6 5 5 5 5 4 4 4 4 4 4 4 4 3 3 3 3 3 3 3 3 3 3 3 3 3 3 4 4 4 4 4 4 4 4
6 5 5 5 5 5 6 5 5 5 4 4 4 4 4 4 4 4 4 4 3 3 3 3 3 3 3 3 3 3 3 3 3 3 4 4 4 4 4 4 4 4
6 5 5 5 5 5 5 5 5 5 4 4 4 4 4 4 4 4 4 4 3 3 3 3 3 3 2 2 2 3 3 3 3 3 4 4 4 4 4 4 4 4
5 5 5 5 5 5 5 5 5 5 4 4 4 4 4 4 4 4 4 4 3 3 3 3 3 3 2 2 2 2 3 3 3 3 4 4 4 4 4 4 4 4
5 5 5 5 5 5 5 5 5 5 4 4 4 4 4 4 4 4 4 4 3 3 3 2 2 2 2 2 2 2 2 3 3 3 3 4 4 4 4 4 4 3
5 5 5 5 5 5 5 5 5 5 4 4 4 4 4 4 4 4 3 3 3 3 3 2 2 2 2 3 2 2 2 3 3 3 3 3 4 4 4 4 3 3
5 5 5 5 6 5 5 5 5 5 5 4 4 4 4 4 4 4 3 3 3 3 3 3 2 2 3 3 3 3 3 3 3 3 3 3 4 4 4 3 3 3
5 5 5 6 6 5 5 5 5 5 5 4 4 4 4 4 4 3 3 3 3 3 3 3 2 2 3 3 3 4 4 3 3 3 3 3 3 3 3 3 2 2
6 6 6 6 6 6 5 5 5 5 5 4 4 4 4 4 3 3 3 3 3 3 3 3 3 2 3 3 3 4 3 3 2 3 3 3 3 3 3 2 2 2
6 6 6 6 6 6 5 5 5 5 4 4 4 4 4 4 3 3 3 3 2 2 3 3 2 3 3 3 3 3 3 2 2 3 3 3 3 3 2 2 2 1
6 6 6 6 6 6 5 5 5 5 5 4 4 4 4 3 3 3 3 3 2 2 3 3 2 3 3 3 3 3 2 2 3 3 3 3 3 2 2 2 2 1
6 6 6 6 6 6 5 5 5 5 5 4 4 4 4 3 3 3 3 3 2 2 2 2 2 3 3 3 3 2 2 2 3 3 3 3 2 2 2 2 2 1
6 6 6 6 6 6 5 5 5 5 5 5 4 4 4 3 3 3 3 3 2 2 2 2 2 3 3 3 3 2 2 3 3 3 3 2 2 2 2 2 2 2
6 6 6 6 6 5 5 5 5 5 5 5 5 4 4 4 3 3 3 3 2 2 3 2 2 3 3 3 2 2 2 2 3 3 3 3 3 3 3 3 2 2
6 6 6 6 6 6 5 5 5 5 5 5 5 4 4 4 4 3 3 3 3 3 3 3 2 2 3 3 2 2 2 2 3 3 3 3 3 3 3 3 2 2
7 6 6 6 6 6 6 5 5 5 5 5 5 5 4 4 4 4 3 3 3 3 3 3 2 3 3 3 2 2 2 2 2 2 2 3 3 3 3 3 3 3
Height
850 850 849 849 850 850 851 851 851 852 852 853 853 854 854 853 853 852 850 849 848 847 845 844 842 841 839 838 836 835 834 833 832 831 829 828 826 825 824 823 821 820
851 851 851 851 852 852 852 852 853 853 854 854 855 855 856 855 854 852 851 850 849 848 846 844 843 841 839 838 836 835 834 833 832 831 830 829 827 826 824 823 821 820
853 853 853 854 854 854 854 854 854 855 855 856 857 857 857 856 855 854 853 851 850 849 847 845 844 842 840 839 837 836 835 834 833 831 831 829 828 826 825 823 822 820
855 855 855 856 856 855 855 855 856 856 857 858 858 858 858 857 856 855 854 853 851 850 848 847 845 843 842 840 838 837 836 835 834 832 831 830 829 827 825 824 822 820
857 857 857 857 857 856 856 857 857 858 858 859 859 859 859 858 857 856 855 854 853 852 850 848 847 845 843 842 840 839 837 836 835 833 832 831 829 828 826 824 823 821
858 859 859 858 858 857 857 858 859 859 860 860 860 860 860 859 859 858 857 856 855 853 852 850 849 846 845 843 841 840 839 837 836 834 833 831 830 828 826 825 823 821
860 860 860 859 859 859 859 859 860 860 861 862 862 862 861 861 860 859 858 857 856 855 853 852 850 848 846 844 843 841 840 838 837 835 834 832 830 828 827 825 823 821
861 861 861 861 860 860 861 861 861 862 862 863 863 863 863 862 861 860 859 858 857 855 854 853 851 849 847 845 844 842 840 839 837 836 834 832 830 828 827 825 823 821
862 863 862 862 862 862 862 862 863 863 864 864 864 864 864 863 862 861 860 859 858 856 855 853 852 850 848 846 844 842 841 840 838 837 835 833 831 829 827 825 823 821
864 864 864 863 864 864 864 864 865 865 865 866 866 865 865 864 863 862 861 859 858 857 856 855 853 851 849 847 845 843 842 840 839 837 835 833 832 830 828 826 824 822
865 866 866 865 866 866 867 866 866 867 867 867 867 867 866 865 864 863 862 860 860 858 857 856 854 852 850 848 846 844 842 841 839 837 836 834 832 830 828 826 824 822
867 868 868 868 869 869 869 868 868 868 868 868 868 868 867 866 865 864 863 862 861 860 858 857 855 853 851 849 847 845 843 841 840 838 837 835 833 831 829 827 825 823
869 870 870 870 871 871 870 870 869 869 869 870 869 869 868 867 866 866 865 864 862 861 860 858 857 854 852 850 848 846 844 842 841 839 838 836 834 832 830 828 826 824
872 872 872 872 872 872 872 871 871 871 871 871 871 870 869 869 868 867 866 865 864 862 861 859 858 855 853 851 849 847 845 844 842 840 838 836 834 832 830 828 826 824
874 874 874 874 874 873 873 873 873 873 873 873 872 872 871 870 869 868 867 866 865 863 862 860 859 857 855 852 850 848 846 845 843 840 838 836 834 832 830 828 826 823
876 875 876 875 875 875 874 874 874 874 874 874 874 873 872 871 870 869 868 867 866 865 863 861 860 859 856 854 851 849 847 845 842 840 837 836 834 832 830 828 825 823
877 877 877 876 876 876 876 876 876 876 876 876 875 874 873 872 871 870 869 868 867 866 864 863 862 860 857 855 852 849 847 844 842 840 838 836 835 833 830 828 825 822
878 878 878 877 877 877 877 877 878 877 877 877 876 875 874 873 873 872 871 870 868 867 866 864 863 861 858 855 853 850 846 844 843 841 839 838 836 834 831 828 825 822
879 879 879 879 879 879 879 879 879 879 879 878 878 877 876 875 874 873 872 871 869 868 867 866 864 862 859 856 853 850 846 844 844 843 841 839 837 834 832 829 826 823
879 880 880 880 880 880 881 881 881 880 880 880 879 878 877 876 875 875 873 872 871 869 868 867 865 863 860 857 854 851 847 845 845 844 842 840 837 835 832 829 827 824
880 880 881 881 882 882 882 882 882 882 881 881 880 879 879 878 877 876 875 874 872 871 870 868 867 864 861 858 855 851 848 847 846 844 842 840 837 835 832 830 828 825
881 881 882 882 883 883 883 883 883 883 883 882 882 881 880 880 879 878 877 875 874 872 871 870 868 865 862 859 856 852 850 849 847 845 842 840 838 835 833 830 828 826
882 882 883 883 884 884 884 885 884 884 884 883 883 883 882 881 880 879 878 877 875 874 872 871 869 866 863 860 857 853 851 850 848 846 843 841 838 836 833 831 829 826
882 883 883 884 885 885 885 885 885 885 885 885 884 884 883 882 881 881 879 878 876 875 873 871 869 867 864 861 858 855 852 851 849 847 844 842 839 837 834 832 829 826
883 884 884 885 885 886 886 886 886 886 886 886 885 885 885 884 883 881 880 879 877 875 873 871 870 868 865 862 860 856 854 852 851 848 845 842 840 837 835 832 829 826
883 884 885 885 886 886 886 887 887 887 887 887 887 886 886 885 883 882 881 879 877 876 874 872 871 869 866 863 861 858 855 853 852 849 846 843 841 838 835 832 829 826
Wind_Speed
17 17 17 17 17 16 16 14 14 14 14 13 13 13 13 14 15 18 21 23 23 23 24 24 23 23 22 21 21 20 19 16 13 11 12 13 12 12 13 14 14 14
18 18 18 17 16 16 15 15 16 16 15 14 13 13 13 16 19 22 23 24 24 25 25 26 26 25 24 24 23 21 19 18 16 13 13 14 13 13 14 15 15 15
19 19 19 17 16 16 16 16 17 17 17 16 14 13 14 17 21 23 24 25 26 27 28 28 28 28 27 26 24 21 19 18 17 15 14 14 14 14 15 15 15 16
19 18 17 17 16 17 17 17 17 17 17 16 16 15 16 18 20 22 24 26 27 28 29 29 29 29 29 27 25 21 18 16 16 16 16 15 14 14 15 15 16 17
17 17 16 16 17 18 18 18 18 17 17 17 18 18 19 19 20 21 22 24 26 28 29 30 30 29 29 28 25 21 17 16 17 17 16 15 15 15 15 15 17 18
17 17 17 17 18 19 20 20 20 19 19 19 20 20 21 21 20 20 21 22 23 25 27 29 29 30 28 26 23 20 17 16 17 18 17 16 16 16 16 16 17 18
18 17 18 20 21 22 22 22 23 23 22 22 22 22 22 21 20 21 21 21 22 23 24 25 27 29 27 23 21 19 17 16 18 18 18 17 17 17 17 17 17 18
18 18 20 22 24 24 24 25 26 26 24 24 23 21 22 21 21 22 22 21 21 22 22 23 25 27 27 23 21 19 17 17 18 18 18 18 18 18 18 18 18 19
19 20 21 24 26 26 26 26 27 26 25 25 23 22 22 22 22 23 22 21 20 20 21 21 23 25 26 23 21 20 18 17 17 17 18 18 18 18 18 18 19 19
20 21 23 25 25 26 27 27 26 25 25 24 23 23 23 21 21 21 21 20 20 19 20 20 22 24 25 24 23 21 19 18 18 18 18 18 18 19 19 19 19 19
20 21 23 24 25 26 26 26 26 24 24 23 23 23 22 21 20 20 20 20 20 20 20 20 22 24 24 23 23 22 20 18 18 18 18 18 18 19 19 19 19 19
20 21 22 23 24 24 25 26 25 24 23 23 22 22 22 21 21 21 21 21 20 20 20 20 21 24 24 23 23 21 19 19 19 18 18 18 19 20 19 19 19 19
20 21 22 22 23 23 24 25 25 24 23 22 22 22 23 22 22 21 21 21 20 21 20 20 21 24 25 24 23 22 19 18 18 19 19 18 19 20 19 19 19 19
20 20 21 22 22 23 23 24 24 24 23 23 23 24 23 22 22 21 21 20 20 20 20 20 22 26 28 27 24 22 20 19 19 19 19 19 19 19 20 20 20 20
20 21 21 21 22 23 23 23 23 22 22 22 22 22 21 22 22 22 21 21 20 20 21 20 22 27 31 30 27 24 20 18 18 17 17 18 18 19 20 21 20 20
19 20 19 20 22 22 22 22 22 21 21 21 21 20 21 21 22 22 22 21 20 20 20 20 22 27 30 31 31 27 21 17 17 18 17 17 18 20 21 21 21 21
17 17 18 20 21 21 21 21 20 21 20 20 20 20 21 21 22 22 21 21 20 19 20 20 22 28 30 31 32 30 26 21 19 20 20 19 21 22 22 22 22 21
15 16 18 19 20 20 20 20 20 20 20 19 21 22 21 21 22 21 21 21 20 19 20 19 23 28 31 32 32 31 28 22 18 20 20 20 21 22 21 21 21 22
15 16 17 18 19 20 20 19 19 19 20 20 21 23 23 22 22 21 21 21 20 20 19 19 24 29 31 33 33 32 29 21 17 18 19 19 21 21 20 21 21 22
15 15 16 17 18 18 18 18 18 19 20 21 22 24 24 23 22 22 22 21 21 20 19 20 25 29 31 33 33 32 29 23 19 19 19 19 21 20 20 20 21 22
13 14 15 16 17 17 17 18 19 19 20 21 21 22 23 22 21 21 22 22 21 20 19 20 24 28 31 33 34 32 27 22 20 20 20 20 20 20 20 19 20 22
14 15 16 16 16 16 16 16 18 19 20 20 20 21 22 21 21 21 21 21 21 21 19 19 23 28 30 32 34 31 25 21 21 20 21 21 20 21 21 20 21 23
15 16 17 16 15 15 15 16 17 18 19 20 20 20 21 21 20 19 19 20 21 21 21 19 21 27 30 30 32 30 24 22 23 22 22 22 22 22 22 22 23 24
16 16 17 16 14 15 15 15 15 16 17 19 19 19 20 21 20 17 17 20 21 21 23 22 21 25 29 30 30 30 25 22 23 24 23 23 23 23 23 23 24 25
17 17 17 15 15 15 14 14 14 15 16 18 19 19 19 20 20 18 17 18 21 22 24 24 23 24 28 29 29 30 27 23 23 24 24 23 23 23 23 24 25 26
17 16 16 15 14 14 13 13 13 14 15 16 17 17 17 19 20 20 18 18 21 22 23 24 24 24 27 29 29 29 28 25 23 23 24 23 23 23 24 24 26 26
Wind_Direction
77 77 77 74 72 70 67 64 60 58 55 51 50 47 43 43 44 46 49 48 47 45 42 39 36 32 30 28 26 26 22 16 11 5 2 360 355 349 345 340 337 332
79 80 80 77 75 72 68 67 65 63 61 58 56 53 50 51 52 51 51 49 47 45 42 39 36 34 31 30 28 25 21 17 12 6 2 360 359 354 349 346 344 341
80 79 79 77 76 74 71 71 69 67 64 60 57 56 53 53 53 51 50 49 46 44 43 40 37 35 33 31 29 25 21 17 10 3 359 358 356 354 350 348 346 346
80 79 79 77 76 75 74 72 69 67 64 61 59 58 56 53 52 51 49 48 46 44 42 40 38 37 35 33 30 25 20 15 9 2 359 358 354 351 349 347 345 345
81 80 79 78 77 76 74 72 70 68 67 65 62 60 57 55 52 50 47 45 45 43 42 40 38 37 36 33 30 25 18 12 8 4 0 359 357 354 350 347 345 344
83 81 81 79 77 77 75 73 72 72 70 67 64 60 57 56 53 49 47 44 42 41 39 37 35 34 34 32 28 24 18 11 7 5 3 359 357 355 352 349 346 344
86 84 82 81 80 79 78 76 75 74 71 68 65 61 57 54 52 50 48 45 41 39 36 34 32 31 30 28 24 20 17 12 7 5 4 0 357 355 353 350 347 345
88 85 84 84 83 81 79 77 75 73 70 67 63 60 57 54 52 52 50 45 41 38 35 33 30 29 29 26 23 20 17 13 9 7 4 1 358 355 352 350 348 346
88 86 86 85 83 81 79 77 74 71 69 66 63 60 59 56 53 52 49 44 40 35 32 30 28 27 26 25 22 18 15 11 9 7 4 2 358 354 352 350 349 347
88 87 86 84 81 80 79 77 74 71 68 65 63 61 58 55 51 48 45 41 37 33 29 27 25 23 22 21 19 15 11 7 6 6 4 2 357 354 353 351 349 348
88 87 85 83 82 80 78 76 73 70 67 64 62 59 56 52 48 45 42 38 35 31 28 26 24 21 19 18 15 12 9 6 4 3 2 359 356 354 353 352 351 348
89 87 85 84 83 80 78 75 71 69 66 63 60 57 55 51 47 45 41 37 35 31 28 27 24 21 19 16 11 9 8 6 4 2 359 357 356 354 352 351 352 350
89 88 87 86 83 81 78 73 70 68 66 63 60 58 55 50 47 44 40 36 34 30 28 29 26 22 20 16 11 8 7 5 4 2 359 358 357 355 353 352 352 351
93 91 90 87 85 82 77 72 69 68 66 64 61 57 53 48 44 41 38 35 33 30 30 30 27 23 21 16 11 9 8 7 4 1 359 358 356 356 355 354 352 350
97 95 91 88 85 80 75 72 69 67 66 62 59 55 50 47 43 39 36 33 32 31 31 31 28 24 22 20 15 11 8 5 2 360 359 357 355 356 357 355 352 348
99 96 91 87 84 78 74 71 68 67 65 60 56 53 49 45 41 38 37 34 32 31 31 31 28 23 23 23 20 16 10 3 360 0 360 359 359 358 356 354 351 348
100 96 90 85 82 78 74 71 67 65 62 59 55 52 48 45 41 38 36 34 33 31 31 31 26 23 23 23 21 19 15 8 1 360 360 2 2 360 356 354 351 349
102 95 88 84 82 78 74 70 67 64 61 58 56 53 49 45 42 39 36 35 34 32 31 29 24 23 23 22 20 19 17 12 2 359 1 2 1 359 356 354 352 350
102 94 88 86 84 80 75 71 67 65 64 61 59 55 51 47 43 41 38 36 34 32 31 28 25 24 23 22 20 20 22 19 6 2 5 4 1 359 356 356 355 352
101 94 90 90 89 83 77 73 70 69 67 65 61 56 52 47 44 41 40 38 35 33 31 28 27 25 24 23 20 20 23 21 8 6 8 5 3 1 358 358 357 353
103 99 97 96 94 88 81 78 75 73 71 67 62 57 52 47 44 42 42 39 37 35 31 28 28 27 24 22 19 18 20 18 9 7 8 6 5 2 0 360 358 356
109 107 104 103 99 93 86 82 79 76 73 68 63 58 53 49 45 43 42 40 38 35 31 27 28 28 25 22 19 19 19 16 12 9 7 6 5 3 1 360 358 357
116 112 110 108 103 96 91 86 82 77 72 67 62 57 52 49 45 42 41 41 39 36 33 29 28 28 27 23 20 21 20 16 14 12 8 6 6 4 2 0 358 357
120 117 115 112 106 101 95 89 83 77 71 66 62 57 52 49 46 42 41 42 40 39 37 34 29 27 27 24 22 23 23 19 15 13 10 9 6 3 2 0 357 357
123 121 118 114 109 104 98 91 84 77 70 65 61 57 52 48 46 42 40 41 42 40 38 35 30 27 26 25 24 26 26 22 18 16 14 11 7 3 2 0 358 357
126 124 121 117 113 106 99 91 83 76 69 63 58 55 50 46 45 42 40 40 41 39 36 33 31 28 27 26 26 28 29 26 21 17 14 10 7 6 4 1 0 359